TimeCDT,TemperatureF,Dew PointF,Humidity,Sea Level PressureIn,VisibilityMPH,Wind Direction,Wind SpeedMPH,Gust SpeedMPH,PrecipitationIn,Events,Conditions,WindDirDegrees,DateUTC
12:53 AM,35.1,28.9,78,30.33,5.0,NNW,4.6,-,N/A,,Haze,330,2012-10-28 05:53:00
1:53 AM,35.1,28.9,78,30.32,5.0,NW,3.5,-,N/A,,Haze,320,2012-10-28 06:53:00
2:53 AM,34.0,28.9,82,30.32,10.0,North,3.5,-,N/A,,Clear,360,2012-10-28 07:53:00
3:53 AM,34.0,28.0,79,30.30,10.0,NNE,3.5,-,N/A,,Clear,20,2012-10-28 08:53:00
4:53 AM,33.1,27.0,78,30.30,10.0,NNE,4.6,-,N/A,,Clear,30,2012-10-28 09:53:00
5:53 AM,32.0,27.0,82,30.32,7.0,Calm,Calm,-,N/A,,Clear,0,2012-10-28 10:53:00
6:53 AM,30.9,27.0,85,30.32,10.0,Calm,Calm,-,N/A,,Clear,0,2012-10-28 11:53:00
7:53 AM,30.9,27.0,85,30.34,9.0,Variable,4.6,-,N/A,,Clear,0,2012-10-28 12:53:00
8:53 AM,35.1,28.9,78,30.36,10.0,North,4.6,-,N/A,,Clear,360,2012-10-28 13:53:00
9:53 AM,39.9,30.0,68,30.37,10.0,North,3.5,-,N/A,,Clear,350,2012-10-28 14:53:00
10:53 AM,45.0,28.9,53,30.37,10.0,North,5.8,-,N/A,,Clear,350,2012-10-28 15:53:00
12:53 PM,48.0,28.0,46,30.33,10.0,North,5.8,-,N/A,,Clear,360,2012-10-28 17:53:00
1:53 PM,48.9,27.0,43,30.31,10.0,NE,6.9,-,N/A,,Clear,50,2012-10-28 18:53:00
2:53 PM,51.1,28.9,43,30.29,10.0,NNW,9.2,-,N/A,,Clear,330,2012-10-28 19:53:00
3:53 PM,51.1,28.0,41,30.28,10.0,North,6.9,-,N/A,,Clear,10,2012-10-28 20:53:00
4:53 PM,50.0,28.0,43,30.27,10.0,NNE,8.1,-,N/A,,Clear,20,2012-10-28 21:53:00
5:53 PM,46.9,28.9,50,30.28,10.0,NNE,4.6,-,N/A,,Clear,30,2012-10-28 22:53:00
6:53 PM,44.1,28.0,53,30.30,10.0,NNE,4.6,-,N/A,,Clear,20,2012-10-28 23:53:00
7:53 PM,41.0,28.0,60,30.30,10.0,Calm,Calm,-,N/A,,Clear,0,2012-10-29 00:53:00
8:53 PM,41.0,28.0,60,30.31,10.0,Calm,Calm,-,N/A,,Clear,0,2012-10-29 01:53:00
9:53 PM,39.0,27.0,62,30.32,10.0,ENE,3.5,-,N/A,,Clear,70,2012-10-29 02:53:00
10:53 PM,39.9,23.0,51,30.32,10.0,East,3.5,-,N/A,,Clear,80,2012-10-29 03:53:00
11:53 PM,37.9,23.0,55,30.31,10.0,Calm,Calm,-,N/A,,Clear,0,2012-10-29 04:53:00